{"data":{"norad_id":52641,"epoch":"2026-05-25T01:19:56.076960Z","epoch_age_seconds":60330,"freshness":"FRESH","line1":"1 52641U 22052AV  26145.05551015  .00000970  00000+0  79033-4 0  9990","line2":"2 52641  53.2155 276.4985 0001685  80.7807 279.3376 15.08833803222666","mean_motion":15.08833803,"eccentricity":0.0001685,"inclination_deg":53.2155,"raan_deg":276.4985,"arg_perigee_deg":80.7807,"mean_anomaly_deg":279.3376,"bstar":7.9033e-5,"rev_number":22266,"period_min":95.437946653691,"perigee_km":538.59666474155,"apogee_km":540.92799681602,"semimajor_km":6917.8993307788,"source":"CELESTRAK","updated_at":"2026-05-25T13:38:17.206470Z"}}